Regional Weather Roundup
Issued by NWS

Home | Current Version | Previous Version | Text Only | Print | Product List | Glossary On
Versions: 1 2 3 4 5 6 7 8 9 10 11 12 13 14 15 16 17 18 19 20 21 22 23 24 25 26 27 28 29 30 31 32 33 34 35 36 37 38 39 40 41 42 43 44 45 46 47 48 49 50
633
ASUS43 KDTX 012101
RWRMI
MICHIGAN HOURLY REGIONAL WEATHER ROUNDUP
NATIONAL WEATHER SERVICE DETROIT/PONTIAC MI
500 PM EDT SUN MAY 01 2016

NOTE: "FAIR" INDICATES FEW OR NO CLOUDS BELOW 12,000 FEET WITH NO
SIGNIFICANT WEATHER AND/OR OBSTRUCTION TO VISIBILITY.

MIZ047>049-052>055-059>063-066>070-074>076-081>083-012200-
SOUTHEAST LOWER MICHIGAN

CITY           SKY/WX    TMP DP  RH WIND       PRES   REMARKS
ADRIAN         CLOUDY    55  50  83 NE10      29.98S
ALMA           CLOUDY    48  43  84 NE15G22   30.05R
ANN ARBOR      CLOUDY    53  48  83 N8        29.98S
BAD AXE        CLOUDY    46  39  76 NE13G18   30.06R
CARO           CLOUDY    47  42  82 NE8       30.04R
DETROIT CITY   CLOUDY    53  46  77 N10       29.99S
DETROIT        CLOUDY    54  47  77 N8        29.99S
FLINT          CLOUDY    52  45  77 NE12      30.02S
GROSSE ILE     CLOUDY    55  50  82 N9        29.97S
HILLSDALE      CLOUDY    52  51  96 NE6       29.98R
HOWELL         CLOUDY    50  47  90 N5        30.00S

CITY           SKY/WX    TMP DP  RH WIND       PRES   REMARKS
JACKSON        CLOUDY    51  48  89 NE9       29.99S
LAMBERTVILLE   CLOUDY    55  51  85 NE6       29.98R
LANSING        CLOUDY    51  47  86 NE10      30.01F
LAPEER         CLOUDY    46  44  91 NE8       30.02S
MASON          CLOUDY    49  47  92 NE9       30.00S
MONROE         CLOUDY    54  51  88 NE8       29.98R
MT. CLEMENS    CLOUDY    51  50  93 N14       29.98S FOG
PONTIAC        CLOUDY    49  46  90 N8        29.99S
PORT HOPE        N/A     43  38  82 NE10      30.05R
PORT HURON     CLOUDY    48  46  93 N7        30.01S FOG
TRI CITIES     CLOUDY    50  41  71 E21G26    30.05S
MIDLAND        CLOUDY    52  39  61 NE15G25   30.05F
TROY           CLOUDY    51  48  87 NE10      30.01S
SAGINAW HB     CLOUDY    46  43  87 NE18      30.04S
$$
MIZ043>046-050>051-056>058-064>065-071>073-077>080-012200-
SOUTHWEST LOWER MICHIGAN

CITY           SKY/WX    TMP DP  RH WIND       PRES   REMARKS
BATTLE CREEK   CLOUDY    50  46  86 NE9       30.01R
BENTON HARBOR  CLOUDY    54  47  77 NE7       29.98F
BIG RAPIDS     CLOUDY    51  41  68 E13       30.03S
COLDWATER      CLOUDY    54  50  87 N8        29.98S
FREMONT        CLOUDY    51  44  76 E9        30.03R
HOLLAND        CLOUDY    53  46  77 E10       30.01S
GRAND RAPIDS   CLOUDY    52  46  80 E13       30.02S
IONIA          CLOUDY    49  45  85 NE12G17   30.02R
KALAMAZOO      CLOUDY    52  46  80 E6        30.00S
LUDINGTON      CLOUDY    51  44  76 E10G16    30.05R
MARSHALL       CLOUDY    51  47  87 NE6       29.99S
MOUNT PLEASANT CLOUDY    51  41  66 NE17G23   30.03F
MUSKEGON       CLOUDY    54  44  69 E12       30.02R
SOUTH HAVEN    CLOUDY    53  47  81 E7        29.99S
$$
MIZ016>042-012200-
NORTHERN LOWER MICHIGAN

CITY           SKY/WX    TMP DP  RH WIND       PRES   REMARKS
ALPENA         CLOUDY    54  33  45 NE8       30.09F
BEAVER ISLAND  CLOUDY    56  33  41 E6        30.11F
BELLAIRE       CLOUDY    55  38  52 E8        30.08F
CADILLAC       CLOUDY    50  39  65 E10G20    30.05R
CHARLEVOIX     CLOUDY    49  37  63 N9        30.12S
FRANKFORT      CLOUDY    52  42  70 NE6       30.08S
GAYLORD        CLOUDY    52  35  52 E8        30.08F
HARBOR SPRINGS CLOUDY    58  33  39 NE12      30.09S
HOUGHTON LAKE  CLOUDY    52  37  56 NE17G24   30.06F
MANISTEE       CLOUDY    54  39  58 NE16      30.05F
OSCODA         CLOUDY    53  31  44 NE14      30.07S
PELLSTON       CLOUDY    56  32  40 NE8       30.10F
ROGERS CITY    MOSUNNY   50  35  57 CALM      30.11F
TRAVERSE CITY  CLOUDY    53  40  61 NE10      30.07S
$$
MIZ007>008-015-012200-
EASTERN UPPER MICHIGAN

CITY           SKY/WX    TMP DP  RH WIND       PRES   REMARKS
KINROSS          N/A     59  28  31 NE5       30.08S
MACKINAC ISLAN PTSUNNY   53  33  46 S6        30.10F
NEWBERRY       CLOUDY    57  34  41 S7        30.08F
S. S. MARIE    CLOUDY    59  32  36 NW7       30.08S
MUNISING         N/A     44  37  76 NW17      30.14S
$$
MIZ004>006-011>014-085-012200-
CENTRAL UPPER MICHIGAN

CITY           SKY/WX    TMP DP  RH WIND       PRES   REMARKS
MANISTIQUE     SUNNY     54  32  43 SW6       30.11S
ESCANABA       SUNNY     55  34  44 S9        30.11F
MENOMINEE      SUNNY     55  34  44 E12       30.11S
SAWYER-GWINN   MOSUNNY   50  32  50 NE17      30.16S
$$
MIZ001>003-009>011-084-012200-
WESTERN UPPER MICHIGAN

CITY           SKY/WX    TMP DP  RH WIND       PRES   REMARKS
IRON MOUNTAIN  MOSUNNY   63  27  25 VRB6      30.07F
HOUGHTON       SUNNY     53  33  46 E9        30.16S
COPPER HARBOR    N/A     45  37  73 CALM      30.18F
IRONWOOD         N/A     50  36  57 N8        30.13F
$$

ABBREVIATIONS USED IN REMARKS
   TC - TEMPERATURE IN CELSIUS
  WCI - WIND CHILL INDEX
   HX - HEAT INDEX
  VSB - VISIBILITY





USA.gov is the U.S. government's official web portal to all federal, state and local government web resources and services.